Saint Bonnet de Bellac- Haute Vienne - France
Donnes mto: dimanche / lundi, 03/10/2011
Date Horaire Temp. E. Hum. E. P.atmo. Pluie Vent Direction Direction Ensoleilleme Solaire P. de rose Temp au vent Rafales
02/10/2011 23:00 15,8 C 64 % 1024,8 hPa 0,0 mm 0,0 km/h (0 Bft) E-SE 112 0 min 0 W/m 9,0 C 15,8 C 0,0 km/h (0 Bft)
02/10/2011 23:05 15,8 C 65 % 1024,8 hPa 0,0 mm 0,0 km/h (0 Bft) SE 135 0 min 0 W/m 9,2 C 15,8 C 0,0 km/h (0 Bft)
02/10/2011 23:10 15,6 C 65 % 1024,8 hPa 0,0 mm 0,0 km/h (0 Bft) SE 135 0 min 0 W/m 9,0 C 15,6 C 0,0 km/h (0 Bft)
02/10/2011 23:15 15,3 C 65 % 1024,8 hPa 0,0 mm 0,0 km/h (0 Bft) SE 135 0 min 0 W/m 8,8 C 15,3 C 0,0 km/h (0 Bft)
02/10/2011 23:20 15,1 C 66 % 1024,8 hPa 0,0 mm 0,0 km/h (0 Bft) SE 135 0 min 0 W/m 8,8 C 15,1 C 0,0 km/h (0 Bft)
02/10/2011 23:25 14,9 C 67 % 1024,9 hPa 0,0 mm 0,4 km/h (0 Bft) E-SE 112 0 min 0 W/m 8,8 C 14,9 C 4,3 km/h (1 Bft)
02/10/2011 23:30 14,9 C 68 % 1024,9 hPa 0,0 mm 1,8 km/h (1 Bft) E-SE 112 0 min 0 W/m 9,0 C 14,9 C 3,2 km/h (1 Bft)
02/10/2011 23:35 15,0 C 68 % 1024,8 hPa 0,0 mm 2,2 km/h (1 Bft) E 90 0 min 0 W/m 9,1 C 15,0 C 3,6 km/h (1 Bft)
02/10/2011 23:40 14,9 C 69 % 1024,8 hPa 0,0 mm 0,4 km/h (0 Bft) E-SE 112 0 min 0 W/m 9,3 C 14,9 C 0,4 km/h (0 Bft)
02/10/2011 23:45 14,9 C 69 % 1024,8 hPa 0,0 mm 1,4 km/h (1 Bft) E 90 0 min 0 W/m 9,3 C 14,9 C 4,0 km/h (1 Bft)
02/10/2011 23:50 14,8 C 70 % 1024,9 hPa 0,0 mm 1,4 km/h (1 Bft) E 90 0 min 0 W/m 9,4 C 14,8 C 1,4 km/h (1 Bft)
02/10/2011 23:55 14,8 C 70 % 1024,9 hPa 0,0 mm 0,0 km/h (0 Bft) SE 135 0 min 0 W/m 9,4 C 14,8 C 0,0 km/h (0 Bft)
03/10/2011 00:00 14,6 C 71 % 1024,9 hPa 0,0 mm 0,0 km/h (0 Bft) E 90 0 min 0 W/m 9,4 C 14,6 C 0,0 km/h (0 Bft)
03/10/2011 00:05 14,4 C 71 % 1024,8 hPa 0,0 mm 2,2 km/h (1 Bft) E 90 0 min 0 W/m 9,2 C 14,4 C 2,2 km/h (1 Bft)
03/10/2011 00:10 14,4 C 72 % 1024,8 hPa 0,0 mm 1,4 km/h (1 Bft) E 90 0 min 0 W/m 9,4 C 14,4 C 3,2 km/h (1 Bft)
03/10/2011 00:15 14,3 C 73 % 1024,7 hPa 0,0 mm 1,8 km/h (1 Bft) E-SE 112 0 min 0 W/m 9,5 C 14,3 C 1,8 km/h (1 Bft)
03/10/2011 00:20 14,2 C 73 % 1024,8 hPa 0,0 mm 1,1 km/h (1 Bft) E-SE 112 0 min 0 W/m 9,4 C 14,2 C 4,0 km/h (1 Bft)
03/10/2011 00:25 14,1 C 73 % 1024,7 hPa 0,0 mm 0,0 km/h (0 Bft) E 90 0 min 0 W/m 9,3 C 14,1 C 0,0 km/h (0 Bft)
03/10/2011 00:30 14,0 C 73 % 1024,8 hPa 0,0 mm 0,0 km/h (0 Bft) E-SE 112 0 min 0 W/m 9,2 C 14,0 C 0,0 km/h (0 Bft)
03/10/2011 00:35 14,0 C 73 % 1024,7 hPa 0,0 mm 1,1 km/h (1 Bft) E-SE 112 0 min 0 W/m 9,2 C 14,0 C 3,2 km/h (1 Bft)
03/10/2011 00:40 13,9 C 74 % 1024,7 hPa 0,0 mm 0,7 km/h (0 Bft) E-SE 112 0 min 0 W/m 9,3 C 13,9 C 3,2 km/h (1 Bft)
03/10/2011 00:45 13,9 C 74 % 1024,8 hPa 0,0 mm 1,4 km/h (1 Bft) SE 135 0 min 0 W/m 9,3 C 13,9 C 3,6 km/h (1 Bft)
03/10/2011 00:50 13,8 C 74 % 1024,7 hPa 0,0 mm 2,5 km/h (1 Bft) E 90 0 min 0 W/m 9,2 C 13,8 C 4,3 km/h (1 Bft)
03/10/2011 00:55 13,8 C 75 % 1024,7 hPa 0,0 mm 0,7 km/h (0 Bft) E-SE 112 0 min 0 W/m 9,4 C 13,8 C 3,6 km/h (1 Bft)
03/10/2011 01:00 13,8 C 75 % 1024,7 hPa 0,0 mm 2,5 km/h (1 Bft) E-SE 112 0 min 0 W/m 9,4 C 13,8 C 4,3 km/h (1 Bft)
03/10/2011 01:05 13,8 C 75 % 1024,6 hPa 0,0 mm 4,0 km/h (1 Bft) E 90 0 min 0 W/m 9,4 C 13,8 C 10,4 km/h (2 Bft)
03/10/2011 01:10 13,8 C 75 % 1024,6 hPa 0,0 mm 2,2 km/h (1 Bft) SE 135 0 min 0 W/m 9,4 C 13,8 C 5,4 km/h (2 Bft)
03/10/2011 01:15 13,7 C 74 % 1024,6 hPa 0,0 mm 1,1 km/h (1 Bft) E-NE 67 0 min 0 W/m 9,2 C 13,7 C 6,8 km/h (2 Bft)
03/10/2011 01:20 13,6 C 75 % 1024,6 hPa 0,0 mm 0,4 km/h (0 Bft) E-SE 112 0 min 0 W/m 9,3 C 13,6 C 0,4 km/h (0 Bft)
03/10/2011 01:25 13,5 C 75 % 1024,5 hPa 0,0 mm 0,0 km/h (0 Bft) E-NE 67 0 min 0 W/m 9,2 C 13,5 C 0,0 km/h (0 Bft)
03/10/2011 01:30 13,4 C 75 % 1024,5 hPa 0,0 mm 0,0 km/h (0 Bft) E-SE 112 0 min 0 W/m 9,1 C 13,4 C 0,0 km/h (0 Bft)
03/10/2011 01:35 13,3 C 75 % 1024,6 hPa 0,0 mm 1,4 km/h (1 Bft) E-SE 112 0 min 0 W/m 9,0 C 13,3 C 3,2 km/h (1 Bft)
03/10/2011 01:40 13,1 C 75 % 1024,5 hPa 0,0 mm 0,0 km/h (0 Bft) E 90 0 min 0 W/m 8,8 C 13,1 C 0,0 km/h (0 Bft)
03/10/2011 01:45 13,0 C 76 % 1024,5 hPa 0,0 mm 0,0 km/h (0 Bft) E 90 0 min 0 W/m 8,9 C 13,0 C 0,0 km/h (0 Bft)
03/10/2011 01:50 12,9 C 76 % 1024,5 hPa 0,0 mm 0,0 km/h (0 Bft) E-SE 112 0 min 0 W/m 8,8 C 12,9 C 0,0 km/h (0 Bft)
03/10/2011 01:55 12,8 C 76 % 1024,5 hPa 0,0 mm 2,9 km/h (1 Bft) E-SE 112 0 min 0 W/m 8,7 C 12,8 C 4,3 km/h (1 Bft)
03/10/2011 02:00 12,8 C 77 % 1024,5 hPa 0,0 mm 0,0 km/h (0 Bft) SE 135 0 min 0 W/m 8,9 C 12,8 C 0,0 km/h (0 Bft)
03/10/2011 02:05 12,8 C 77 % 1024,5 hPa 0,0 mm 0,0 km/h (0 Bft) E-SE 112 0 min 0 W/m 8,9 C 12,8 C 0,0 km/h (0 Bft)
03/10/2011 02:10 12,6 C 76 % 1024,5 hPa 0,0 mm 1,4 km/h (1 Bft) E 90 0 min 0 W/m 8,5 C 12,6 C 4,0 km/h (1 Bft)
03/10/2011 02:15 12,6 C 77 % 1024,4 hPa 0,0 mm 2,2 km/h (1 Bft) SE 135 0 min 0 W/m 8,7 C 12,6 C 4,0 km/h (1 Bft)
03/10/2011 02:20 12,5 C 77 % 1024,5 hPa 0,0 mm 2,5 km/h (1 Bft) E-SE 112 0 min 0 W/m 8,6 C 12,5 C 5,0 km/h (1 Bft)
03/10/2011 02:25 12,5 C 77 % 1024,4 hPa 0,0 mm 0,4 km/h (0 Bft) E 90 0 min 0 W/m 8,6 C 12,5 C 3,2 km/h (1 Bft)
03/10/2011 02:30 12,4 C 77 % 1024,4 hPa 0,0 mm 0,7 km/h (0 Bft) E 90 0 min 0 W/m 8,5 C 12,4 C 3,6 km/h (1 Bft)
03/10/2011 02:35 12,4 C 78 % 1024,3 hPa 0,0 mm 0,4 km/h (0 Bft) S-SE 157 0 min 0 W/m 8,7 C 12,4 C 3,6 km/h (1 Bft)
03/10/2011 02:40 12,3 C 78 % 1024,3 hPa 0,0 mm 0,0 km/h (0 Bft) SE 135 0 min 0 W/m 8,6 C 12,3 C 3,2 km/h (1 Bft)
03/10/2011 02:45 12,2 C 78 % 1024,3 hPa 0,0 mm 0,0 km/h (0 Bft) SE 135 0 min 0 W/m 8,5 C 12,2 C 0,0 km/h (0 Bft)
03/10/2011 02:50 12,1 C 78 % 1024,3 hPa 0,0 mm 0,0 km/h (0 Bft) E-SE 112 0 min 0 W/m 8,4 C 12,1 C 0,0 km/h (0 Bft)
03/10/2011 02:55 12,0 C 78 % 1024,3 hPa 0,0 mm 0,0 km/h (0 Bft) E-SE 112 0 min 0 W/m 8,3 C 12,0 C 1,4 km/h (1 Bft)
03/10/2011 03:02 11,9 C 78 % 1024,3 hPa 0,0 mm 1,8 km/h (1 Bft) E 90 0 min 0 W/m 8,2 C 11,9 C 2,9 km/h (1 Bft)
03/10/2011 03:05 11,8 C 78 % 1024,2 hPa 0,0 mm 0,0 km/h (0 Bft) E-SE 112 0 min 0 W/m 8,1 C 11,8 C 0,0 km/h (0 Bft)
03/10/2011 03:10 11,8 C 79 % 1024,2 hPa 0,0 mm 0,0 km/h (0 Bft) SE 135 0 min 0 W/m 8,3 C 11,8 C 0,0 km/h (0 Bft)
03/10/2011 03:15 11,8 C 80 % 1024,2 hPa 0,0 mm 0,7 km/h (0 Bft) SE 135 0 min 0 W/m 8,5 C 11,8 C 0,7 km/h (0 Bft)
03/10/2011 03:20 11,7 C 80 % 1024,1 hPa 0,0 mm 1,1 km/h (1 Bft) SE 135 0 min 0 W/m 8,4 C 11,7 C 1,1 km/h (1 Bft)
03/10/2011 03:25 11,6 C 80 % 1024,2 hPa 0,0 mm 0,4 km/h (0 Bft) E-SE 112 0 min 0 W/m 8,3 C 11,6 C 0,4 km/h (0 Bft)
03/10/2011 03:30 11,5 C 81 % 1024,2 hPa 0,0 mm 2,2 km/h (1 Bft) E-SE 112 0 min 0 W/m 8,4 C 11,5 C 3,6 km/h (1 Bft)
03/10/2011 03:35 11,5 C 81 % 1024,2 hPa 0,0 mm 2,9 km/h (1 Bft) E-SE 112 0 min 0 W/m 8,4 C 11,5 C 4,3 km/h (1 Bft)
03/10/2011 03:40 11,4 C 80 % 1024,2 hPa 0,0 mm 1,1 km/h (1 Bft) E-SE 112 0 min 0 W/m 8,1 C 11,4 C 3,2 km/h (1 Bft)
03/10/2011 03:45 11,4 C 80 % 1024,1 hPa 0,0 mm 1,1 km/h (1 Bft) SE 135 0 min 0 W/m 8,1 C 11,4 C 4,3 km/h (1 Bft)
03/10/2011 03:50 11,3 C 80 % 1024,1 hPa 0,0 mm 1,4 km/h (1 Bft) E-SE 112 0 min 0 W/m 8,0 C 11,3 C 4,3 km/h (1 Bft)
03/10/2011 03:55 11,2 C 81 % 1024,2 hPa 0,0 mm 0,0 km/h (0 Bft) E-SE 112 0 min 0 W/m 8,1 C 11,2 C 0,0 km/h (0 Bft)
03/10/2011 04:00 11,1 C 81 % 1024,2 hPa 0,0 mm 1,1 km/h (1 Bft) E-SE 112 0 min 0 W/m 8,0 C 11,1 C 4,3 km/h (1 Bft)
03/10/2011 04:05 11,1 C 81 % 1024,1 hPa 0,0 mm 0,4 km/h (0 Bft) S 180 0 min 0 W/m 8,0 C 11,1 C 0,4 km/h (0 Bft)
03/10/2011 04:10 11,1 C 81 % 1024,2 hPa 0,0 mm 0,0 km/h (0 Bft) E-SE 112 0 min 0 W/m 8,0 C 11,1 C 0,0 km/h (0 Bft)
03/10/2011 04:15 11,1 C 81 % 1024,1 hPa 0,0 mm 1,4 km/h (1 Bft) SE 135 0 min 0 W/m 8,0 C 11,1 C 2,9 km/h (1 Bft)
03/10/2011 04:20 10,9 C 81 % 1024,2 hPa 0,0 mm 0,4 km/h (0 Bft) E-SE 112 0 min 0 W/m 7,8 C 10,9 C 3,6 km/h (1 Bft)
03/10/2011 04:25 10,9 C 81 % 1024,2 hPa 0,0 mm 1,8 km/h (1 Bft) S-SE 157 0 min 0 W/m 7,8 C 10,9 C 4,0 km/h (1 Bft)
03/10/2011 04:30 10,9 C 82 % 1024,1 hPa 0,0 mm 1,4 km/h (1 Bft) S-SE 157 0 min 0 W/m 7,9 C 10,9 C 1,4 km/h (1 Bft)
03/10/2011 04:35 10,9 C 82 % 1024,1 hPa 0,0 mm 0,0 km/h (0 Bft) SE 135 0 min 0 W/m 7,9 C 10,9 C 0,0 km/h (0 Bft)
03/10/2011 04:40 10,8 C 82 % 1024,1 hPa 0,0 mm 0,0 km/h (0 Bft) E-SE 112 0 min 0 W/m 7,9 C 10,8 C 0,0 km/h (0 Bft)
03/10/2011 04:45 10,8 C 82 % 1024,2 hPa 0,0 mm 3,2 km/h (1 Bft) SE 135 0 min 0 W/m 7,9 C 10,8 C 6,1 km/h (2 Bft)
03/10/2011 04:50 10,8 C 82 % 1024,3 hPa 0,0 mm 3,2 km/h (1 Bft) E 90 0 min 0 W/m 7,9 C 10,8 C 4,3 km/h (1 Bft)
03/10/2011 04:55 10,7 C 83 % 1024,2 hPa 0,0 mm 1,4 km/h (1 Bft) E-SE 112 0 min 0 W/m 7,9 C 10,7 C 3,6 km/h (1 Bft)
03/10/2011 05:00 10,6 C 83 % 1024,1 hPa 0,0 mm 2,5 km/h (1 Bft) NE 45 0 min 0 W/m 7,8 C 10,6 C 4,3 km/h (1 Bft)
03/10/2011 05:05 10,6 C 83 % 1024,2 hPa 0,0 mm 0,0 km/h (0 Bft) E 90 0 min 0 W/m 7,8 C 10,6 C 0,0 km/h (0 Bft)
03/10/2011 05:10 10,5 C 83 % 1024,1 hPa 0,0 mm 1,1 km/h (1 Bft) SE 135 0 min 0 W/m 7,7 C 10,5 C 4,3 km/h (1 Bft)
03/10/2011 05:15 10,4 C 83 % 1024,2 hPa 0,0 mm 3,6 km/h (1 Bft) E-SE 112 0 min 0 W/m 7,6 C 10,4 C 7,2 km/h (2 Bft)
03/10/2011 05:20 10,4 C 83 % 1024,1 hPa 0,0 mm 3,2 km/h (1 Bft) E-SE 112 0 min 0 W/m 7,6 C 10,4 C 6,1 km/h (2 Bft)
03/10/2011 05:25 10,4 C 83 % 1024,1 hPa 0,0 mm 4,0 km/h (1 Bft) E 90 0 min 0 W/m 7,6 C 10,4 C 7,2 km/h (2 Bft)
03/10/2011 05:30 10,3 C 83 % 1024,1 hPa 0,0 mm 2,9 km/h (1 Bft) E-SE 112 0 min 0 W/m 7,5 C 10,3 C 8,3 km/h (2 Bft)
03/10/2011 05:35 10,3 C 84 % 1024,2 hPa 0,0 mm 2,2 km/h (1 Bft) SE 135 0 min 0 W/m 7,7 C 10,3 C 4,3 km/h (1 Bft)
03/10/2011 05:40 10,3 C 84 % 1024,0 hPa 0,0 mm 2,2 km/h (1 Bft) SE 135 0 min 0 W/m 7,7 C 10,3 C 4,0 km/h (1 Bft)
03/10/2011 05:45 10,2 C 84 % 1024,1 hPa 0,0 mm 1,1 km/h (1 Bft) E-SE 112 0 min 0 W/m 7,6 C 10,2 C 4,0 km/h (1 Bft)
03/10/2011 05:50 10,2 C 84 % 1024,2 hPa 0,0 mm 1,8 km/h (1 Bft) E 90 0 min 0 W/m 7,6 C 10,2 C 6,5 km/h (2 Bft)
03/10/2011 05:55 10,1 C 84 % 1024,1 hPa 0,0 mm 0,0 km/h (0 Bft) SE 135 0 min 0 W/m 7,5 C 10,1 C 0,0 km/h (0 Bft)
03/10/2011 06:00 10,0 C 84 % 1024,1 hPa 0,0 mm 0,4 km/h (0 Bft) E-SE 112 0 min 0 W/m 7,4 C 10,0 C 0,4 km/h (0 Bft)
03/10/2011 06:05 9,9 C 83 % 1024,1 hPa 0,0 mm 2,5 km/h (1 Bft) S-SE 157 0 min 0 W/m 7,2 C 9,9 C 4,3 km/h (1 Bft)
03/10/2011 06:10 9,9 C 84 % 1024,2 hPa 0,0 mm 0,0 km/h (0 Bft) S-SE 157 0 min 0 W/m 7,3 C 9,9 C 0,0 km/h (0 Bft)
03/10/2011 06:15 9,8 C 84 % 1024,0 hPa 0,0 mm 0,4 km/h (0 Bft) SE 135 0 min 0 W/m 7,2 C 9,8 C 0,4 km/h (0 Bft)
03/10/2011 06:20 9,8 C 84 % 1024,1 hPa 0,0 mm 1,4 km/h (1 Bft) SE 135 0 min 0 W/m 7,2 C 9,8 C 3,6 km/h (1 Bft)
03/10/2011 06:25 9,8 C 84 % 1024,1 hPa 0,0 mm 0,0 km/h (0 Bft) E-SE 112 0 min 0 W/m 7,2 C 9,8 C 0,0 km/h (0 Bft)
03/10/2011 06:30 9,7 C 84 % 1024,1 hPa 0,0 mm 0,0 km/h (0 Bft) E-SE 112 0 min 0 W/m 7,1 C 9,7 C 3,2 km/h (1 Bft)
03/10/2011 06:35 9,6 C 84 % 1024,1 hPa 0,0 mm 0,0 km/h (0 Bft) SE 135 0 min 0 W/m 7,0 C 9,6 C 0,0 km/h (0 Bft)
03/10/2011 06:40 9,6 C 84 % 1024,2 hPa 0,0 mm 1,1 km/h (1 Bft) E 90 0 min 0 W/m 7,0 C 9,6 C 3,2 km/h (1 Bft)
03/10/2011 06:45 9,5 C 84 % 1024,2 hPa 0,0 mm 0,7 km/h (0 Bft) E-SE 112 0 min 0 W/m 6,9 C 9,5 C 3,2 km/h (1 Bft)
03/10/2011 06:50 9,5 C 84 % 1024,2 hPa 0,0 mm 1,1 km/h (1 Bft) E-SE 112 0 min 0 W/m 6,9 C 9,5 C 6,5 km/h (2 Bft)
03/10/2011 06:55 9,5 C 84 % 1024,3 hPa 0,0 mm 0,7 km/h (0 Bft) E-SE 112 0 min 0 W/m 6,9 C 9,5 C 3,6 km/h (1 Bft)
03/10/2011 07:00 9,5 C 84 % 1024,3 hPa 0,0 mm 0,0 km/h (0 Bft) SE 135 0 min 0 W/m 6,9 C 9,5 C 3,2 km/h (1 Bft)
03/10/2011 07:05 9,5 C 84 % 1024,3 hPa 0,0 mm 0,0 km/h (0 Bft) SE 135 0 min 0 W/m 6,9 C 9,5 C 0,0 km/h (0 Bft)
03/10/2011 07:10 9,5 C 84 % 1024,3 hPa 0,0 mm 0,0 km/h (0 Bft) E-SE 112 0 min 0 W/m 6,9 C 9,5 C 0,0 km/h (0 Bft)
03/10/2011 07:15 9,5 C 84 % 1024,4 hPa 0,0 mm 0,0 km/h (0 Bft) SE 135 0 min 0 W/m 6,9 C 9,5 C 0,0 km/h (0 Bft)
03/10/2011 07:20 9,4 C 84 % 1024,4 hPa 0,0 mm 0,0 km/h (0 Bft) E-SE 112 0 min 0 W/m 6,8 C 9,4 C 0,0 km/h (0 Bft)
03/10/2011 07:25 9,4 C 84 % 1024,3 hPa 0,0 mm 1,4 km/h (1 Bft) E 90 0 min 0 W/m 6,8 C 9,4 C 4,3 km/h (1 Bft)
03/10/2011 07:30 9,4 C 84 % 1024,4 hPa 0,0 mm 0,0 km/h (0 Bft) E-SE 112 0 min 0 W/m 6,8 C 9,4 C 0,0 km/h (0 Bft)
03/10/2011 07:35 9,4 C 84 % 1024,3 hPa 0,0 mm 0,4 km/h (0 Bft) E 90 0 min 0 W/m 6,8 C 9,4 C 2,9 km/h (1 Bft)
03/10/2011 07:40 9,4 C 84 % 1024,4 hPa 0,0 mm 0,4 km/h (0 Bft) E-SE 112 0 min 0 W/m 6,8 C 9,4 C 4,0 km/h (1 Bft)
03/10/2011 07:45 9,3 C 85 % 1024,3 hPa 0,0 mm 0,0 km/h (0 Bft) E-SE 112 0 min 0 W/m 6,9 C 9,3 C 0,0 km/h (0 Bft)
03/10/2011 07:50 9,3 C 85 % 1024,4 hPa 0,0 mm 0,4 km/h (0 Bft) E 90 0 min 0 W/m 6,9 C 9,3 C 0,4 km/h (0 Bft)
03/10/2011 07:55 9,2 C 85 % 1024,4 hPa 0,0 mm 0,4 km/h (0 Bft) E-SE 112 0 min 0 W/m 6,8 C 9,2 C 4,3 km/h (1 Bft)
03/10/2011 08:00 9,2 C 85 % 1024,4 hPa 0,0 mm 0,4 km/h (0 Bft) E 90 0 min 0 W/m 6,8 C 9,2 C 0,4 km/h (0 Bft)
03/10/2011 08:05 9,1 C 85 % 1024,4 hPa 0,0 mm 0,0 km/h (0 Bft) S-SE 157 0 min 0 W/m 6,7 C 9,1 C 0,0 km/h (0 Bft)
03/10/2011 08:10 9,1 C 85 % 1024,5 hPa 0,0 mm 0,0 km/h (0 Bft) E-SE 112 2 min 0 W/m 6,7 C 9,1 C 0,0 km/h (0 Bft)
03/10/2011 08:15 9,2 C 86 % 1024,4 hPa 0,0 mm 1,1 km/h (1 Bft) SE 135 2 min 0 W/m 7,0 C 9,2 C 4,0 km/h (1 Bft)
03/10/2011 08:20 9,2 C 86 % 1024,5 hPa 0,0 mm 0,0 km/h (0 Bft) E-SE 112 2 min 0 W/m 7,0 C 9,2 C 0,0 km/h (0 Bft)
03/10/2011 08:25 9,3 C 86 % 1024,5 hPa 0,0 mm 1,1 km/h (1 Bft) SE 135 2 min 0 W/m 7,1 C 9,3 C 4,3 km/h (1 Bft)
03/10/2011 08:30 9,3 C 86 % 1024,5 hPa 0,0 mm 0,4 km/h (0 Bft) E-SE 112 2 min 0 W/m 7,1 C 9,3 C 3,2 km/h (1 Bft)
03/10/2011 08:35 9,3 C 86 % 1024,5 hPa 0,0 mm 0,4 km/h (0 Bft) E 90 2 min 0 W/m 7,1 C 9,3 C 3,6 km/h (1 Bft)
03/10/2011 08:40 9,4 C 86 % 1024,5 hPa 0,0 mm 1,4 km/h (1 Bft) S-SE 157 2 min 0 W/m 7,2 C 9,4 C 2,9 km/h (1 Bft)
03/10/2011 08:45 9,4 C 86 % 1024,6 hPa 0,0 mm 0,4 km/h (0 Bft) SE 135 2 min 0 W/m 7,2 C 9,4 C 3,2 km/h (1 Bft)
03/10/2011 08:50 9,5 C 87 % 1024,6 hPa 0,0 mm 1,4 km/h (1 Bft) SE 135 2 min 0 W/m 7,4 C 9,5 C 3,6 km/h (1 Bft)
03/10/2011 08:55 9,6 C 87 % 1024,7 hPa 0,0 mm 1,1 km/h (1 Bft) E-SE 112 2 min 0 W/m 7,5 C 9,6 C 4,3 km/h (1 Bft)
03/10/2011 09:00 9,8 C 87 % 1024,7 hPa 0,0 mm 1,1 km/h (1 Bft) E 90 2 min 0 W/m 7,7 C 9,8 C 3,6 km/h (1 Bft)
03/10/2011 09:05 10,0 C 87 % 1024,7 hPa 0,0 mm 0,0 km/h (0 Bft) E-NE 67 2 min 0 W/m 7,9 C 10,0 C 0,0 km/h (0 Bft)
03/10/2011 09:10 10,3 C 87 % 1024,7 hPa 0,0 mm 0,4 km/h (0 Bft) E-SE 112 2 min 0 W/m 8,2 C 10,3 C 0,4 km/h (0 Bft)
03/10/2011 09:15 10,5 C 87 % 1024,7 hPa 0,0 mm 0,0 km/h (0 Bft) E 90 2 min 0 W/m 8,4 C 10,5 C 0,0 km/h (0 Bft)
03/10/2011 09:20 10,8 C 87 % 1024,8 hPa 0,0 mm 2,9 km/h (1 Bft) SE 135 2 min 0 W/m 8,7 C 10,8 C 3,2 km/h (1 Bft)
03/10/2011 09:25 11,2 C 86 % 1024,8 hPa 0,0 mm 0,0 km/h (0 Bft) SE 135 2 min 0 W/m 8,9 C 11,2 C 0,0 km/h (0 Bft)
03/10/2011 09:30 11,6 C 86 % 1024,9 hPa 0,0 mm 0,0 km/h (0 Bft) E-SE 112 2 min 0 W/m 9,3 C 11,6 C 0,0 km/h (0 Bft)
03/10/2011 09:35 12,1 C 86 % 1025,0 hPa 0,0 mm 0,7 km/h (0 Bft) SE 135 2 min 0 W/m 9,8 C 12,1 C 3,2 km/h (1 Bft)
03/10/2011 09:40 12,4 C 85 % 1025,0 hPa 0,0 mm 2,5 km/h (1 Bft) E 90 2 min 0 W/m 9,9 C 12,4 C 4,0 km/h (1 Bft)
03/10/2011 09:45 12,8 C 84 % 1025,1 hPa 0,0 mm 0,4 km/h (0 Bft) E 90 2 min 0 W/m 10,2 C 12,8 C 1,8 km/h (1 Bft)
03/10/2011 09:50 13,3 C 83 % 1025,1 hPa 0,0 mm 2,5 km/h (1 Bft) E-SE 112 2 min 0 W/m 10,5 C 13,3 C 3,6 km/h (1 Bft)
03/10/2011 09:55 13,7 C 82 % 1025,1 hPa 0,0 mm 1,4 km/h (1 Bft) E-SE 112 2 min 0 W/m 10,7 C 13,7 C 1,4 km/h (1 Bft)
03/10/2011 10:00 14,2 C 81 % 1025,1 hPa 0,0 mm 0,0 km/h (0 Bft) SE 135 2 min 0 W/m 11,0 C 14,2 C 0,0 km/h (0 Bft)
03/10/2011 10:05 14,7 C 80 % 1025,2 hPa 0,0 mm 0,4 km/h (0 Bft) SE 135 2 min 0 W/m 11,3 C 14,7 C 3,2 km/h (1 Bft)
03/10/2011 10:10 15,2 C 79 % 1025,2 hPa 0,0 mm 2,2 km/h (1 Bft) SE 135 2 min 0 W/m 11,6 C 15,2 C 4,0 km/h (1 Bft)
03/10/2011 10:15 15,6 C 78 % 1025,3 hPa 0,0 mm 0,0 km/h (0 Bft) E-SE 112 2 min 0 W/m 11,8 C 15,6 C 0,0 km/h (0 Bft)
03/10/2011 10:20 16,1 C 77 % 1025,3 hPa 0,0 mm 0,0 km/h (0 Bft) SE 135 2 min 0 W/m 12,1 C 16,1 C 0,0 km/h (0 Bft)
03/10/2011 10:25 16,7 C 75 % 1025,2 hPa 0,0 mm 1,8 km/h (1 Bft) E-SE 112 0 min 0 W/m 12,2 C 16,7 C 4,3 km/h (1 Bft)
03/10/2011 10:30 17,2 C 74 % 1025,3 hPa 0,0 mm 1,4 km/h (1 Bft) SE 135 0 min 0 W/m 12,5 C 17,2 C 3,6 km/h (1 Bft)
03/10/2011 10:35 17,7 C 73 % 1025,3 hPa 0,0 mm 0,0 km/h (0 Bft) SE 135 0 min 0 W/m 12,8 C 17,7 C 0,0 km/h (0 Bft)
03/10/2011 10:40 18,3 C 72 % 1025,3 hPa 0,0 mm 0,7 km/h (0 Bft) SE 135 0 min 0 W/m 13,2 C 18,3 C 0,7 km/h (0 Bft)
03/10/2011 10:45 18,9 C 70 % 1025,4 hPa 0,0 mm 0,0 km/h (0 Bft) SE 135 0 min 0 W/m 13,3 C 18,9 C 0,0 km/h (0 Bft)
03/10/2011 10:50 19,5 C 69 % 1025,3 hPa 0,0 mm 0,0 km/h (0 Bft) SE 135 0 min 0 W/m 13,7 C 19,5 C 0,0 km/h (0 Bft)
03/10/2011 10:55 20,0 C 68 % 1025,4 hPa 0,0 mm 0,0 km/h (0 Bft) SE 135 0 min 0 W/m 13,9 C 20,0 C 0,0 km/h (0 Bft)
03/10/2011 11:00 20,6 C 66 % 1025,4 hPa 0,0 mm 0,0 km/h (0 Bft) SE 135 0 min 0 W/m 14,0 C 20,6 C 0,0 km/h (0 Bft)
03/10/2011 11:05 21,2 C 65 % 1025,4 hPa 0,0 mm 0,0 km/h (0 Bft) SE 135 0 min 0 W/m 14,4 C 21,2 C 0,0 km/h (0 Bft)
03/10/2011 11:10 21,8 C 65 % 1025,4 hPa 0,0 mm 0,0 km/h (0 Bft) SE 135 0 min 0 W/m 14,9 C 21,8 C 0,0 km/h (0 Bft)
03/10/2011 11:15 22,4 C 63 % 1025,3 hPa 0,0 mm 0,0 km/h (0 Bft) SE 135 0 min 0 W/m 15,0 C 22,4 C 0,0 km/h (0 Bft)
03/10/2011 11:20 23,0 C 61 % 1025,4 hPa 0,0 mm 0,0 km/h (0 Bft) SE 135 0 min 0 W/m 15,1 C 23,0 C 0,0 km/h (0 Bft)
03/10/2011 11:25 23,5 C 60 % 1025,4 hPa 0,0 mm 0,0 km/h (0 Bft) SE 135 0 min 0 W/m 15,3 C 23,5 C 0,0 km/h (0 Bft)
03/10/2011 11:30 24,1 C 59 % 1025,4 hPa 0,0 mm 0,0 km/h (0 Bft) SE 135 0 min 0 W/m 15,6 C 24,1 C 0,0 km/h (0 Bft)
03/10/2011 11:35 24,6 C 58 % 1025,5 hPa 0,0 mm 0,0 km/h (0 Bft) SE 135 0 min 0 W/m 15,8 C 24,6 C 0,0 km/h (0 Bft)
03/10/2011 11:40 25,1 C 58 % 1025,6 hPa 0,0 mm 0,0 km/h (0 Bft) SE 135 0 min 0 W/m 16,2 C 25,1 C 0,0 km/h (0 Bft)
03/10/2011 11:45 25,4 C 55 % 1025,5 hPa 0,0 mm 0,0 km/h (0 Bft) SE 135 0 min 0 W/m 15,7 C 25,4 C 0,0 km/h (0 Bft)
03/10/2011 11:50 25,8 C 56 % 1025,6 hPa 0,0 mm 0,0 km/h (0 Bft) SE 135 0 min 0 W/m 16,3 C 25,8 C 0,0 km/h (0 Bft)
03/10/2011 11:55 26,1 C 53 % 1025,7 hPa 0,0 mm 0,0 km/h (0 Bft) E 90 0 min 0 W/m 15,8 C 26,1 C 0,0 km/h (0 Bft)
03/10/2011 12:00 26,4 C 53 % 1025,7 hPa 0,0 mm 2,5 km/h (1 Bft) E-SE 112 0 min 0 W/m 16,0 C 26,4 C 4,7 km/h (1 Bft)
03/10/2011 12:05 26,5 C 51 % 1025,7 hPa 0,0 mm 1,1 km/h (1 Bft) E-SE 112 0 min 0 W/m 15,5 C 26,5 C 3,6 km/h (1 Bft)
03/10/2011 12:10 26,8 C 49 % 1025,7 hPa 0,0 mm 1,8 km/h (1 Bft) E 90 0 min 0 W/m 15,2 C 26,8 C 3,6 km/h (1 Bft)
03/10/2011 12:15 26,9 C 49 % 1025,7 hPa 0,0 mm 2,5 km/h (1 Bft) E-SE 112 0 min 0 W/m 15,3 C 26,9 C 4,0 km/h (1 Bft)
03/10/2011 12:20 27,3 C 48 % 1025,9 hPa 0,0 mm 1,4 km/h (1 Bft) E 90 0 min 0 W/m 15,3 C 27,3 C 4,3 km/h (1 Bft)
03/10/2011 12:25 27,4 C 47 % 1025,9 hPa 0,0 mm 0,0 km/h (0 Bft) E 90 0 min 0 W/m 15,1 C 27,4 C 0,0 km/h (0 Bft)
03/10/2011 12:30 27,8 C 47 % 1025,8 hPa 0,0 mm 1,4 km/h (1 Bft) E-NE 67 0 min 0 W/m 15,4 C 27,8 C 1,4 km/h (1 Bft)
03/10/2011 12:35 27,9 C 47 % 1025,8 hPa 0,0 mm 4,3 km/h (1 Bft) E-SE 112 0 min 0 W/m 15,5 C 27,9 C 7,2 km/h (2 Bft)
03/10/2011 12:40 28,3 C 47 % 1025,8 hPa 0,0 mm 0,7 km/h (0 Bft) E-NE 67 0 min 0 W/m 15,9 C 28,3 C 3,6 km/h (1 Bft)
03/10/2011 12:45 28,5 C 45 % 1025,8 hPa 0,0 mm 0,0 km/h (0 Bft) E-NE 67 0 min 0 W/m 15,4 C 28,5 C 0,0 km/h (0 Bft)
03/10/2011 12:50 28,8 C 45 % 1025,8 hPa 0,0 mm 0,0 km/h (0 Bft) E-NE 67 0 min 0 W/m 15,7 C 28,8 C 0,0 km/h (0 Bft)
03/10/2011 12:55 28,8 C 41 % 1025,9 hPa 0,0 mm 0,4 km/h (0 Bft) E-NE 67 0 min 0 W/m 14,2 C 28,8 C 0,4 km/h (0 Bft)
03/10/2011 13:00 29,2 C 41 % 1025,8 hPa 0,0 mm 0,7 km/h (0 Bft) NE 45 0 min 0 W/m 14,6 C 29,2 C 4,3 km/h (1 Bft)
03/10/2011 13:05 29,4 C 40 % 1025,8 hPa 0,0 mm 0,0 km/h (0 Bft) NE 45 0 min 0 W/m 14,4 C 29,4 C 0,0 km/h (0 Bft)
03/10/2011 13:10 29,6 C 40 % 1025,8 hPa 0,0 mm 0,0 km/h (0 Bft) NE 45 0 min 0 W/m 14,5 C 29,6 C 0,0 km/h (0 Bft)
03/10/2011 13:15 29,8 C 38 % 1025,8 hPa 0,0 mm 2,5 km/h (1 Bft) N 360 0 min 0 W/m 13,9 C 29,8 C 4,0 km/h (1 Bft)
03/10/2011 13:20 30,1 C 38 % 1025,8 hPa 0,0 mm 1,4 km/h (1 Bft) N-NO 337 0 min 0 W/m 14,2 C 30,1 C 1,4 km/h (1 Bft)
03/10/2011 13:25 30,3 C 36 % 1025,9 hPa 0,0 mm 5,8 km/h (2 Bft) N-NE 22 0 min 0 W/m 13,5 C 30,3 C 8,3 km/h (2 Bft)
03/10/2011 13:30 30,2 C 34 % 1025,9 hPa 0,0 mm 0,0 km/h (0 Bft) N-NE 22 0 min 0 W/m 12,6 C 30,2 C 0,0 km/h (0 Bft)
03/10/2011 13:35 30,0 C 35 % 1025,8 hPa 0,0 mm 4,0 km/h (1 Bft) N-NO 337 0 min 0 W/m 12,8 C 30,0 C 7,2 km/h (2 Bft)
03/10/2011 13:40 30,1 C 34 % 1025,8 hPa 0,0 mm 3,2 km/h (1 Bft) N 360 0 min 0 W/m 12,5 C 30,1 C 4,3 km/h (1 Bft)
03/10/2011 13:45 30,0 C 35 % 1025,9 hPa 0,0 mm 1,4 km/h (1 Bft) E-SE 112 0 min 0 W/m 12,8 C 30,0 C 1,4 km/h (1 Bft)
03/10/2011 13:50 30,0 C 35 % 1025,9 hPa 0,0 mm 1,4 km/h (1 Bft) N 360 0 min 0 W/m 12,8 C 30,0 C 1,4 km/h (1 Bft)
03/10/2011 13:55 29,9 C 34 % 1025,9 hPa 0,0 mm 0,0 km/h (0 Bft) NE 45 0 min 0 W/m 12,3 C 29,9 C 0,0 km/h (0 Bft)
03/10/2011 14:00 29,8 C 34 % 1026,0 hPa 0,0 mm 3,2 km/h (1 Bft) N-NO 337 0 min 0 W/m 12,2 C 29,8 C 4,3 km/h (1 Bft)
03/10/2011 14:05 29,9 C 34 % 1025,9 hPa 0,0 mm 3,2 km/h (1 Bft) N 360 0 min 0 W/m 12,3 C 29,9 C 3,2 km/h (1 Bft)
03/10/2011 14:10 30,1 C 34 % 1025,8 hPa 0,0 mm 0,0 km/h (0 Bft) N 360 0 min 0 W/m 12,5 C 30,1 C 0,0 km/h (0 Bft)
03/10/2011 14:15 30,0 C 34 % 1025,6 hPa 0,0 mm 1,1 km/h (1 Bft) N-NO 337 0 min 0 W/m 12,4 C 30,0 C 3,6 km/h (1 Bft)
03/10/2011 14:20 30,2 C 33 % 1025,5 hPa 0,0 mm 6,1 km/h (2 Bft) N-NO 337 0 min 0 W/m 12,1 C 30,2 C 7,9 km/h (2 Bft)
03/10/2011 14:25 30,3 C 31 % 1025,4 hPa 0,0 mm 5,0 km/h (1 Bft) N 360 0 min 0 W/m 11,3 C 30,3 C 8,3 km/h (2 Bft)
03/10/2011 14:30 30,3 C 31 % 1025,4 hPa 0,0 mm 1,8 km/h (1 Bft) N-NO 337 0 min 0 W/m 11,3 C 30,3 C 6,5 km/h (2 Bft)
03/10/2011 14:35 30,3 C 31 % 1025,3 hPa 0,0 mm 2,5 km/h (1 Bft) N-NO 337 0 min 0 W/m 11,3 C 30,3 C 2,5 km/h (1 Bft)
03/10/2011 14:40 30,4 C 32 % 1025,4 hPa 0,0 mm 0,0 km/h (0 Bft) N-NO 337 0 min 0 W/m 11,8 C 30,4 C 0,0 km/h (0 Bft)
03/10/2011 14:45 30,3 C 31 % 1025,3 hPa 0,0 mm 0,0 km/h (0 Bft) N-NO 337 0 min 0 W/m 11,3 C 30,3 C 0,0 km/h (0 Bft)
03/10/2011 14:50 30,3 C 31 % 1025,2 hPa 0,0 mm 1,1 km/h (1 Bft) SO 225 0 min 0 W/m 11,3 C 30,3 C 4,0 km/h (1 Bft)
03/10/2011 14:55 30,3 C 32 % 1025,1 hPa 0,0 mm 0,0 km/h (0 Bft) SO 225 0 min 0 W/m 11,7 C 30,3 C 0,0 km/h (0 Bft)
03/10/2011 15:00 30,4 C 33 % 1025,0 hPa 0,0 mm 0,4 km/h (0 Bft) O-SO 247 0 min 0 W/m 12,3 C 30,4 C 0,4 km/h (0 Bft)
03/10/2011 15:05 30,3 C 31 % 1024,9 hPa 0,0 mm 0,0 km/h (0 Bft) SO 225 0 min 0 W/m 11,3 C 30,3 C 0,0 km/h (0 Bft)
03/10/2011 15:10 30,3 C 33 % 1024,8 hPa 0,0 mm 0,4 km/h (0 Bft) O 270 0 min 0 W/m 12,2 C 30,3 C 4,0 km/h (1 Bft)
03/10/2011 15:15 30,3 C 33 % 1024,8 hPa 0,0 mm 1,8 km/h (1 Bft) NE 45 0 min 0 W/m 12,2 C 30,3 C 1,8 km/h (1 Bft)
03/10/2011 15:20 30,3 C 33 % 1024,8 hPa 0,0 mm 2,5 km/h (1 Bft) N-NO 337 0 min 0 W/m 12,2 C 30,3 C 2,9 km/h (1 Bft)
03/10/2011 15:25 30,2 C 33 % 1024,7 hPa 0,0 mm 2,9 km/h (1 Bft) N-NO 337 0 min 0 W/m 12,1 C 30,2 C 4,3 km/h (1 Bft)
03/10/2011 15:30 30,0 C 33 % 1024,6 hPa 0,0 mm 0,0 km/h (0 Bft) NO 315 0 min 0 W/m 11,9 C 30,0 C 0,0 km/h (0 Bft)
03/10/2011 15:35 29,8 C 34 % 1024,6 hPa 0,0 mm 0,0 km/h (0 Bft) S-SO 202 0 min 0 W/m 12,2 C 29,8 C 0,0 km/h (0 Bft)
03/10/2011 15:40 29,6 C 34 % 1024,5 hPa 0,0 mm 0,0 km/h (0 Bft) N 360 0 min 0 W/m 12,1 C 29,6 C 3,6 km/h (1 Bft)
03/10/2011 15:45 29,5 C 34 % 1024,5 hPa 0,0 mm 1,8 km/h (1 Bft) N-NE 22 0 min 0 W/m 12,0 C 29,5 C 6,1 km/h (2 Bft)
03/10/2011 15:50 29,4 C 34 % 1024,5 hPa 0,0 mm 1,4 km/h (1 Bft) N 360 0 min 0 W/m 11,9 C 29,4 C 4,0 km/h (1 Bft)
03/10/2011 15:55 29,4 C 33 % 1024,5 hPa 0,0 mm 0,7 km/h (0 Bft) N-NE 22 0 min 0 W/m 11,4 C 29,4 C 2,9 km/h (1 Bft)
03/10/2011 16:00 29,3 C 34 % 1024,5 hPa 0,0 mm 3,6 km/h (1 Bft) NE 45 0 min 0 W/m 11,8 C 29,3 C 6,5 km/h (2 Bft)
03/10/2011 16:05 29,2 C 34 % 1024,5 hPa 0,0 mm 1,1 km/h (1 Bft) N-NE 22 0 min 0 W/m 11,7 C 29,2 C 4,3 km/h (1 Bft)
03/10/2011 16:10 29,1 C 34 % 1024,4 hPa 0,0 mm 0,0 km/h (0 Bft) SO 225 0 min 0 W/m 11,6 C 29,1 C 0,0 km/h (0 Bft)
03/10/2011 16:15 29,1 C 35 % 1024,4 hPa 0,0 mm 0,4 km/h (0 Bft) N 360 0 min 0 W/m 12,1 C 29,1 C 0,4 km/h (0 Bft)
03/10/2011 16:20 29,0 C 34 % 1024,2 hPa 0,0 mm 0,4 km/h (0 Bft) N-NE 22 0 min 0 W/m 11,5 C 29,0 C 0,4 km/h (0 Bft)
03/10/2011 16:25 28,9 C 35 % 1024,1 hPa 0,0 mm 0,4 km/h (0 Bft) N-NE 22 0 min 0 W/m 11,9 C 28,9 C 3,2 km/h (1 Bft)
03/10/2011 16:30 28,8 C 35 % 1024,1 hPa 0,0 mm 0,0 km/h (0 Bft) N-NE 22 0 min 0 W/m 11,8 C 28,8 C 0,0 km/h (0 Bft)
03/10/2011 16:35 28,8 C 35 % 1024,1 hPa 0,0 mm 0,0 km/h (0 Bft) N-NE 22 0 min 0 W/m 11,8 C 28,8 C 0,0 km/h (0 Bft)
03/10/2011 16:40 28,7 C 35 % 1024,1 hPa 0,0 mm 0,4 km/h (0 Bft) N-NE 22 0 min 0 W/m 11,7 C 28,7 C 0,4 km/h (0 Bft)
03/10/2011 16:45 28,6 C 36 % 1024,1 hPa 0,0 mm 0,0 km/h (0 Bft) N-NE 22 0 min 0 W/m 12,0 C 28,6 C 0,0 km/h (0 Bft)
03/10/2011 16:50 28,6 C 36 % 1024,2 hPa 0,0 mm 0,0 km/h (0 Bft) N-NE 22 0 min 0 W/m 12,0 C 28,6 C 0,0 km/h (0 Bft)
03/10/2011 16:55 28,5 C 36 % 1024,1 hPa 0,0 mm 3,6 km/h (1 Bft) N 360 0 min 0 W/m 12,0 C 28,5 C 6,1 km/h (2 Bft)
03/10/2011 17:00 28,5 C 36 % 1024,1 hPa 0,0 mm 1,1 km/h (1 Bft) N-NE 22 0 min 0 W/m 12,0 C 28,5 C 3,6 km/h (1 Bft)
03/10/2011 17:05 28,3 C 36 % 1024,1 hPa 0,0 mm 3,2 km/h (1 Bft) N-NO 337 0 min 0 W/m 11,8 C 28,3 C 6,1 km/h (2 Bft)
03/10/2011 17:10 28,3 C 36 % 1024,1 hPa 0,0 mm 0,7 km/h (0 Bft) N-NO 337 0 min 0 W/m 11,8 C 28,3 C 3,2 km/h (1 Bft)
03/10/2011 17:15 28,2 C 36 % 1024,1 hPa 0,0 mm 5,4 km/h (2 Bft) NO 315 0 min 0 W/m 11,7 C 28,2 C 5,4 km/h (2 Bft)
03/10/2011 17:20 28,1 C 36 % 1024,0 hPa 0,0 mm 0,0 km/h (0 Bft) N-NO 337 0 min 0 W/m 11,6 C 28,1 C 0,0 km/h (0 Bft)
03/10/2011 17:25 28,1 C 36 % 1024,1 hPa 0,0 mm 0,0 km/h (0 Bft) NO 315 0 min 0 W/m 11,6 C 28,1 C 4,0 km/h (1 Bft)
03/10/2011 17:30 28,0 C 36 % 1024,0 hPa 0,0 mm 0,0 km/h (0 Bft) N-NO 337 0 min 0 W/m 11,5 C 28,0 C 0,0 km/h (0 Bft)
03/10/2011 17:35 27,9 C 36 % 1024,1 hPa 0,0 mm 0,0 km/h (0 Bft) N-NE 22 0 min 0 W/m 11,4 C 27,9 C 0,0 km/h (0 Bft)
03/10/2011 17:40 27,9 C 36 % 1024,1 hPa 0,0 mm 0,0 km/h (0 Bft) N 360 0 min 0 W/m 11,4 C 27,9 C 0,0 km/h (0 Bft)
03/10/2011 17:45 27,9 C 36 % 1024,0 hPa 0,0 mm 0,0 km/h (0 Bft) N-NO 337 0 min 0 W/m 11,4 C 27,9 C 0,0 km/h (0 Bft)
03/10/2011 17:50 27,9 C 36 % 1024,0 hPa 0,0 mm 1,1 km/h (1 Bft) N-NO 337 0 min 0 W/m 11,4 C 27,9 C 3,6 km/h (1 Bft)
03/10/2011 17:55 27,8 C 36 % 1024,0 hPa 0,0 mm 0,0 km/h (0 Bft) N 360 0 min 0 W/m 11,3 C 27,8 C 3,6 km/h (1 Bft)
03/10/2011 18:00 27,8 C 36 % 1024,1 hPa 0,0 mm 0,0 km/h (0 Bft) N 360 0 min 0 W/m 11,3 C 27,8 C 0,0 km/h (0 Bft)
03/10/2011 18:05 27,6 C 37 % 1024,0 hPa 0,0 mm 0,0 km/h (0 Bft) N 360 0 min 0 W/m 11,6 C 27,6 C 0,0 km/h (0 Bft)
03/10/2011 18:10 27,6 C 37 % 1024,0 hPa 0,0 mm 0,0 km/h (0 Bft) N 360 0 min 0 W/m 11,6 C 27,6 C 0,0 km/h (0 Bft)
03/10/2011 18:15 27,5 C 37 % 1023,9 hPa 0,0 mm 0,0 km/h (0 Bft) N 360 0 min 0 W/m 11,5 C 27,5 C 0,0 km/h (0 Bft)
03/10/2011 18:20 27,4 C 37 % 1023,9 hPa 0,0 mm 0,0 km/h (0 Bft) N 360 0 min 0 W/m 11,4 C 27,4 C 0,0 km/h (0 Bft)
03/10/2011 18:25 27,4 C 38 % 1023,9 hPa 0,0 mm 0,0 km/h (0 Bft) N 360 0 min 0 W/m 11,8 C 27,4 C 0,0 km/h (0 Bft)
03/10/2011 18:30 27,3 C 38 % 1023,9 hPa 0,0 mm 0,0 km/h (0 Bft) N 360 0 min 0 W/m 11,7 C 27,3 C 0,0 km/h (0 Bft)
03/10/2011 18:35 27,3 C 38 % 1023,9 hPa 0,0 mm 0,0 km/h (0 Bft) N 360 0 min 0 W/m 11,7 C 27,3 C 0,0 km/h (0 Bft)
03/10/2011 18:40 27,3 C 38 % 1023,9 hPa 0,0 mm 0,0 km/h (0 Bft) N 360 0 min 0 W/m 11,7 C 27,3 C 0,0 km/h (0 Bft)
03/10/2011 18:45 27,2 C 38 % 1023,9 hPa 0,0 mm 0,0 km/h (0 Bft) N 360 0 min 0 W/m 11,6 C 27,2 C 0,0 km/h (0 Bft)
03/10/2011 18:50 27,1 C 39 % 1024,0 hPa 0,0 mm 0,0 km/h (0 Bft) N 360 0 min 0 W/m 11,9 C 27,1 C 0,0 km/h (0 Bft)
03/10/2011 18:55 26,8 C 39 % 1024,0 hPa 0,0 mm 0,0 km/h (0 Bft) N 360 0 min 0 W/m 11,7 C 26,8 C 0,0 km/h (0 Bft)
03/10/2011 19:00 26,6 C 40 % 1024,0 hPa 0,0 mm 0,0 km/h (0 Bft) N 360 0 min 0 W/m 11,9 C 26,6 C 0,0 km/h (0 Bft)
03/10/2011 19:05 26,2 C 40 % 1024,0 hPa 0,0 mm 0,0 km/h (0 Bft) N 360 0 min 0 W/m 11,5 C 26,2 C 0,0 km/h (0 Bft)
03/10/2011 19:10 25,8 C 41 % 1024,1 hPa 0,0 mm 0,0 km/h (0 Bft) N 360 0 min 0 W/m 11,5 C 25,8 C 0,0 km/h (0 Bft)
03/10/2011 19:15 25,4 C 41 % 1024,1 hPa 0,0 mm 0,0 km/h (0 Bft) N 360 0 min 0 W/m 11,2 C 25,4 C 0,0 km/h (0 Bft)
03/10/2011 19:20 24,9 C 42 % 1024,2 hPa 0,0 mm 0,0 km/h (0 Bft) N 360 0 min 0 W/m 11,1 C 24,9 C 0,0 km/h (0 Bft)
03/10/2011 19:25 24,6 C 42 % 1024,1 hPa 0,0 mm 0,0 km/h (0 Bft) N 360 0 min 0 W/m 10,8 C 24,6 C 0,0 km/h (0 Bft)
03/10/2011 19:30 24,1 C 44 % 1024,2 hPa 0,0 mm 0,0 km/h (0 Bft) N 360 0 min 0 W/m 11,1 C 24,1 C 0,0 km/h (0 Bft)
03/10/2011 19:35 23,6 C 45 % 1024,2 hPa 0,0 mm 0,0 km/h (0 Bft) N 360 0 min 0 W/m 11,0 C 23,6 C 0,0 km/h (0 Bft)
03/10/2011 19:40 23,1 C 46 % 1024,2 hPa 0,0 mm 0,0 km/h (0 Bft) N 360 0 min 0 W/m 10,8 C 23,1 C 0,0 km/h (0 Bft)
03/10/2011 19:45 22,8 C 47 % 1024,2 hPa 0,0 mm 0,0 km/h (0 Bft) N 360 0 min 0 W/m 10,9 C 22,8 C 0,0 km/h (0 Bft)
03/10/2011 19:50 22,3 C 47 % 1024,3 hPa 0,0 mm 0,0 km/h (0 Bft) N 360 0 min 0 W/m 10,4 C 22,3 C 0,0 km/h (0 Bft)
03/10/2011 19:55 21,8 C 48 % 1024,3 hPa 0,0 mm 0,0 km/h (0 Bft) N 360 0 min 0 W/m 10,3 C 21,8 C 0,0 km/h (0 Bft)
03/10/2011 20:00 21,4 C 49 % 1024,3 hPa 0,0 mm 0,0 km/h (0 Bft) N 360 0 min 0 W/m 10,2 C 21,4 C 0,0 km/h (0 Bft)
03/10/2011 20:05 21,1 C 49 % 1024,3 hPa 0,0 mm 0,0 km/h (0 Bft) N 360 0 min 0 W/m 10,0 C 21,1 C 0,0 km/h (0 Bft)
03/10/2011 20:10 20,8 C 49 % 1024,3 hPa 0,0 mm 0,0 km/h (0 Bft) N 360 0 min 0 W/m 9,7 C 20,8 C 0,0 km/h (0 Bft)
03/10/2011 20:15 20,4 C 49 % 1024,3 hPa 0,0 mm 0,0 km/h (0 Bft) N-NE 22 0 min 0 W/m 9,3 C 20,4 C 0,0 km/h (0 Bft)
03/10/2011 20:20 20,2 C 50 % 1024,4 hPa 0,0 mm 0,0 km/h (0 Bft) N-NE 22 0 min 0 W/m 9,4 C 20,2 C 0,0 km/h (0 Bft)
03/10/2011 20:25 19,9 C 50 % 1024,4 hPa 0,0 mm 0,0 km/h (0 Bft) N-NE 22 0 min 0 W/m 9,2 C 19,9 C 0,0 km/h (0 Bft)
03/10/2011 20:30 19,7 C 51 % 1024,4 hPa 0,0 mm 0,0 km/h (0 Bft) N-NE 22 0 min 0 W/m 9,3 C 19,7 C 0,0 km/h (0 Bft)
03/10/2011 20:35 19,5 C 51 % 1024,5 hPa 0,0 mm 0,0 km/h (0 Bft) N-NE 22 0 min 0 W/m 9,1 C 19,5 C 0,0 km/h (0 Bft)
03/10/2011 20:40 19,3 C 52 % 1024,5 hPa 0,0 mm 0,0 km/h (0 Bft) N-NE 22 0 min 0 W/m 9,2 C 19,3 C 0,0 km/h (0 Bft)
03/10/2011 20:45 19,2 C 53 % 1024,6 hPa 0,0 mm 0,0 km/h (0 Bft) N-NE 22 0 min 0 W/m 9,4 C 19,2 C 0,0 km/h (0 Bft)
03/10/2011 20:50 19,0 C 52 % 1024,5 hPa 0,0 mm 0,0 km/h (0 Bft) N-NE 22 0 min 0 W/m 8,9 C 19,0 C 0,0 km/h (0 Bft)
03/10/2011 20:55 18,8 C 53 % 1024,6 hPa 0,0 mm 0,0 km/h (0 Bft) N-NE 22 0 min 0 W/m 9,0 C 18,8 C 0,0 km/h (0 Bft)
03/10/2011 21:00 18,5 C 53 % 1024,5 hPa 0,0 mm 0,0 km/h (0 Bft) N-NE 22 0 min 0 W/m 8,7 C 18,5 C 0,0 km/h (0 Bft)
03/10/2011 21:05 18,3 C 54 % 1024,6 hPa 0,0 mm 0,0 km/h (0 Bft) N-NE 22 0 min 0 W/m 8,8 C 18,3 C 0,0 km/h (0 Bft)
03/10/2011 21:10 18,1 C 55 % 1024,5 hPa 0,0 mm 0,0 km/h (0 Bft) NE 45 0 min 0 W/m 8,9 C 18,1 C 0,0 km/h (0 Bft)
03/10/2011 21:15 17,8 C 55 % 1024,5 hPa 0,0 mm 0,0 km/h (0 Bft) NE 45 0 min 0 W/m 8,6 C 17,8 C 0,0 km/h (0 Bft)
03/10/2011 21:20 17,8 C 56 % 1024,5 hPa 0,0 mm 0,0 km/h (0 Bft) NE 45 0 min 0 W/m 8,9 C 17,8 C 0,0 km/h (0 Bft)
03/10/2011 21:25 17,6 C 56 % 1024,5 hPa 0,0 mm 0,0 km/h (0 Bft) E 90 0 min 0 W/m 8,7 C 17,6 C 0,0 km/h (0 Bft)
03/10/2011 21:30 17,5 C 57 % 1024,5 hPa 0,0 mm 0,0 km/h (0 Bft) E 90 0 min 0 W/m 8,9 C 17,5 C 0,0 km/h (0 Bft)
03/10/2011 21:35 17,4 C 57 % 1024,4 hPa 0,0 mm 0,0 km/h (0 Bft) E 90 0 min 0 W/m 8,8 C 17,4 C 0,0 km/h (0 Bft)
03/10/2011 21:40 17,3 C 58 % 1024,5 hPa 0,0 mm 0,0 km/h (0 Bft) E-SE 112 0 min 0 W/m 9,0 C 17,3 C 0,0 km/h (0 Bft)
03/10/2011 21:45 17,2 C 59 % 1024,7 hPa 0,0 mm 0,0 km/h (0 Bft) E-SE 112 0 min 0 W/m 9,1 C 17,2 C 0,0 km/h (0 Bft)
03/10/2011 21:50 17,1 C 59 % 1024,7 hPa 0,0 mm 0,0 km/h (0 Bft) O 270 0 min 0 W/m 9,0 C 17,1 C 0,0 km/h (0 Bft)
03/10/2011 21:55 16,9 C 60 % 1024,7 hPa 0,0 mm 0,0 km/h (0 Bft) O-SO 247 0 min 0 W/m 9,1 C 16,9 C 0,0 km/h (0 Bft)
03/10/2011 22:00 16,8 C 61 % 1024,7 hPa 0,0 mm 0,0 km/h (0 Bft) O-NO 292 0 min 0 W/m 9,2 C 16,8 C 0,0 km/h (0 Bft)
03/10/2011 22:05 16,8 C 62 % 1024,8 hPa 0,0 mm 0,0 km/h (0 Bft) O-NO 292 0 min 0 W/m 9,5 C 16,8 C 0,0 km/h (0 Bft)
03/10/2011 22:10 16,8 C 62 % 1024,8 hPa 0,0 mm 0,0 km/h (0 Bft) O-NO 292 0 min 0 W/m 9,5 C 16,8 C 0,0 km/h (0 Bft)
03/10/2011 22:15 16,7 C 62 % 1024,8 hPa 0,0 mm 0,0 km/h (0 Bft) O-NO 292 0 min 0 W/m 9,4 C 16,7 C 0,0 km/h (0 Bft)
03/10/2011 22:20 16,6 C 62 % 1024,7 hPa 0,0 mm 0,0 km/h (0 Bft) O-NO 292 0 min 0 W/m 9,3 C 16,6 C 0,0 km/h (0 Bft)
03/10/2011 22:25 16,5 C 62 % 1024,8 hPa 0,0 mm 0,0 km/h (0 Bft) O-NO 292 0 min 0 W/m 9,2 C 16,5 C 0,0 km/h (0 Bft)
_ Min-Heure 08:10 15:05 18:45 - 22:25 - - - - 08:10 08:10 22:25
Minimum _ 9,1 C 31 % 1023,9 hPa - 0,0 km/h (0 Bft) - - - - 6,7 C 9,1 C 0,0 km/h (0 Bft)
_ Max-Heure 15:00 09:20 14:00 22:25 14:20 - - 10:20 22:25 11:50 15:00 01:05
Maximum _ 30,4 C 87 % 1026,0 hPa 0,0 mm 6,1 km/h
N-NO (2 Bft)
- - 2 min 0 W/m 16,3 C 30,4 C 10,4 km/h
E (2 Bft)
Moyenne _ 18,5 C 62 % 1024,7 hPa #0,0 mm 0,7 km/h (0 Bft) E-SE - #54 min. 0 W/m 10,1 C 18,5 C 1,7 km/h (1 Bft)
Saint Bonnet de Bellac- Haute Vienne - France